Location: Arrodets-la-Barthe
(43.0306°N, 0.2829°E)
Time: 12:03:00
(UTC+00:00)

CSL-04 Rocket - Pass Details

Date: 29 May 2022
Orbit: 807 x 859 km, 98.9° (Epoch: 30 June)

Event Time Altitude Azimuth Distance (km) Brightness Sun altitude
Rises 20:59:39 0° 210° (SSW) 3,322 6.6 -13.6°
Reaches altitude 10° 21:02:52 10° 231° (SW) 2,403 6.1 -14.0°
Maximum altitude 21:06:09 16° 270° (W) 2,000 6.2 -14.3°
Drops below altitude 10° 21:09:28 10° 308° (NW) 2,433 7.4 -14.7°
Sets 21:12:47 0° 329° (NNW) 3,383 8.6 -15.1°
